Time,TemperatureF,DewpointF,PressureIn,WindDirection,WindDirectionDegrees,WindSpeedMPH,WindSpeedGustMPH,Humidity,HourlyPrecipIn,Conditions,Clouds,dailyrainin,SoftwareType,DateUTC
2013-04-09 00:00:00,26.9,24.4,29.56,NE,40,0.0,0.0,90,0.00,RA,,0.00,WeatherDisplay:10.37,2013-04-09 06:00:00,
2013-04-09 00:05:00,26.6,24.1,29.56,East,79,0.0,0.0,90,0.00,RA,,0.00,WeatherDisplay:10.37,2013-04-09 06:05:00,
2013-04-09 00:10:00,26.3,23.8,29.56,ENE,70,0.0,0.0,90,0.00,CLR,,0.00,WeatherDisplay:10.37,2013-04-09 06:10:00,
2013-04-09 00:15:00,26.0,23.5,29.58,ENE,64,0.0,0.0,90,0.00,CLR,,0.00,WeatherDisplay:10.37,2013-04-09 06:15:00,
2013-04-09 00:20:00,25.8,23.3,29.58,NE,36,0.0,0.0,90,0.00,CLR,,0.00,WeatherDisplay:10.37,2013-04-09 06:20:00,
2013-04-09 00:25:00,25.7,22.9,29.58,East,81,0.0,0.0,89,0.00,CLR,,0.00,WeatherDisplay:10.37,2013-04-09 06:25:00,
2013-04-09 00:30:00,25.7,23.2,29.60,NE,38,0.0,0.0,90,0.00,CLR,,0.00,WeatherDisplay:10.37,2013-04-09 06:30:00,
2013-04-09 00:35:00,25.6,22.8,29.60,East,93,0.0,0.0,89,0.00,CLR,,0.00,WeatherDisplay:10.37,2013-04-09 06:35:00,
2013-04-09 00:40:00,25.3,22.5,29.60,NE,55,0.0,0.0,89,0.00,CLR,,0.00,WeatherDisplay:10.37,2013-04-09 06:40:00,
2013-04-09 00:45:00,25.1,22.3,29.60,NE,42,0.0,0.0,89,0.00,CLR,,0.00,WeatherDisplay:10.37,2013-04-09 06:45:00,
2013-04-09 00:50:00,25.0,22.2,29.60,NE,53,0.0,0.0,89,0.00,CLR,,0.00,WeatherDisplay:10.37,2013-04-09 06:50:00,
2013-04-09 00:55:00,24.8,22.0,29.60,ENE,60,0.0,0.0,89,0.00,CLR,,0.00,WeatherDisplay:10.37,2013-04-09 06:55:00,
2013-04-09 01:00:00,24.7,21.9,29.60,ENE,64,0.0,0.0,89,0.00,CLR,,0.00,WeatherDisplay:10.37,2013-04-09 07:00:00,
2013-04-09 01:05:00,24.5,21.7,29.60,NE,48,0.0,0.0,89,0.00,CLR,,0.00,WeatherDisplay:10.37,2013-04-09 07:05:00,
2013-04-09 01:10:00,24.5,21.7,29.60,NE,42,0.0,0.0,89,0.00,CLR,,0.00,WeatherDisplay:10.37,2013-04-09 07:10:00,
2013-04-09 01:15:00,24.5,21.7,29.61,ENE,57,0.0,0.0,89,0.00,CLR,,0.00,WeatherDisplay:10.37,2013-04-09 07:15:00,
2013-04-09 01:20:00,24.5,21.7,29.61,ENE,67,0.0,0.0,89,0.00,CLR,,0.00,WeatherDisplay:10.37,2013-04-09 07:20:00,
2013-04-09 01:25:00,24.4,21.6,29.61,NE,46,0.0,0.0,89,0.00,CLR,,0.00,WeatherDisplay:10.37,2013-04-09 07:25:00,
2013-04-09 01:30:00,24.4,21.6,29.62,NNE,26,0.0,0.0,89,0.00,CLR,,0.00,WeatherDisplay:10.37,2013-04-09 07:30:00,
2013-04-09 01:35:00,24.4,21.6,29.62,ESE,105,0.0,0.0,89,0.00,CLR,,0.00,WeatherDisplay:10.37,2013-04-09 07:35:00,
2013-04-09 01:40:00,24.1,21.3,29.62,ESE,111,0.0,0.0,89,0.00,CLR,,0.00,WeatherDisplay:10.37,2013-04-09 07:40:00,
2013-04-09 01:45:00,24.1,21.3,29.63,ESE,117,0.0,0.0,89,0.00,CLR,,0.00,WeatherDisplay:10.37,2013-04-09 07:45:00,
2013-04-09 01:50:00,23.8,20.8,29.63,ESE,118,0.0,0.0,88,0.00,CLR,,0.00,WeatherDisplay:10.37,2013-04-09 07:50:00,
2013-04-09 01:55:00,23.5,20.5,29.63,ESE,111,0.0,0.0,88,0.00,CLR,,0.00,WeatherDisplay:10.37,2013-04-09 07:55:00,
2013-04-09 02:00:00,23.5,20.5,29.63,East,94,0.0,0.0,88,0.00,CLR,,0.00,WeatherDisplay:10.37,2013-04-09 08:00:00,
2013-04-09 02:05:00,23.5,20.5,29.63,East,86,0.0,0.0,88,0.00,CLR,,0.00,WeatherDisplay:10.37,2013-04-09 08:05:00,
2013-04-09 02:10:00,23.3,20.3,29.63,ESE,118,0.0,0.0,88,0.00,CLR,,0.00,WeatherDisplay:10.37,2013-04-09 08:10:00,
2013-04-09 02:15:00,22.9,19.6,29.69,SE,128,0.0,0.0,87,0.00,CLR,,0.00,WeatherDisplay:10.37,2013-04-09 08:15:00,
2013-04-09 02:20:00,22.4,19.1,29.69,ESE,115,0.0,0.0,87,0.00,CLR,,0.00,WeatherDisplay:10.37,2013-04-09 08:20:00,
2013-04-09 02:25:00,21.8,18.3,29.69,SE,128,0.0,0.0,86,0.00,CLR,,0.00,WeatherDisplay:10.37,2013-04-09 08:25:00,
2013-04-09 02:30:00,21.1,17.6,29.73,ESE,117,0.0,0.0,86,0.00,CLR,,0.00,WeatherDisplay:10.37,2013-04-09 08:30:00,
2013-04-09 02:35:00,21.0,17.7,29.73,SE,127,0.0,0.0,87,0.00,CLR,,0.00,WeatherDisplay:10.37,2013-04-09 08:35:00,
2013-04-09 02:40:00,20.6,17.1,29.73,ESE,121,0.0,0.0,86,0.00,CLR,,0.00,WeatherDisplay:10.37,2013-04-09 08:40:00,
2013-04-09 02:45:00,20.2,16.7,29.71,SE,128,0.0,0.0,86,0.00,CLR,,0.00,WeatherDisplay:10.37,2013-04-09 08:45:00,
2013-04-09 02:50:00,20.2,17.0,29.71,ENE,72,0.0,0.0,87,0.00,CLR,,0.00,WeatherDisplay:10.37,2013-04-09 08:50:00,
2013-04-09 02:55:00,20.0,16.5,29.71,ENE,57,0.0,0.0,86,0.00,CLR,,0.00,WeatherDisplay:10.37,2013-04-09 08:55:00,
2013-04-09 03:00:00,20.0,16.5,29.72,ENE,62,0.0,0.0,86,0.00,CLR,,0.00,WeatherDisplay:10.37,2013-04-09 09:00:00,
2013-04-09 03:05:00,19.7,16.2,29.72,NE,56,0.0,0.0,86,0.00,CLR,,0.00,WeatherDisplay:10.37,2013-04-09 09:05:00,
2013-04-09 03:10:00,19.5,16.0,29.72,NNE,24,0.0,0.0,86,0.00,CLR,,0.00,WeatherDisplay:10.37,2013-04-09 09:10:00,
2013-04-09 03:15:00,19.4,15.9,29.73,ENE,66,0.0,0.0,86,0.00,CLR,,0.00,WeatherDisplay:10.37,2013-04-09 09:15:00,
2013-04-09 03:20:00,19.1,15.6,29.73,ENE,72,0.0,0.0,86,0.00,CLR,,0.00,WeatherDisplay:10.37,2013-04-09 09:20:00,
2013-04-09 03:25:00,18.8,15.3,29.73,East,80,0.0,0.0,86,0.00,CLR,,0.00,WeatherDisplay:10.37,2013-04-09 09:25:00,
2013-04-09 03:30:00,18.6,14.8,29.74,East,98,0.0,0.0,85,0.00,CLR,,0.00,WeatherDisplay:10.37,2013-04-09 09:30:00,
2013-04-09 03:35:00,18.4,14.6,29.74,East,80,0.0,0.0,85,0.00,CLR,,0.00,WeatherDisplay:10.37,2013-04-09 09:35:00,
2013-04-09 03:40:00,18.4,14.9,29.74,ENE,73,0.0,0.0,86,0.00,CLR,,0.00,WeatherDisplay:10.37,2013-04-09 09:40:00,
2013-04-09 03:45:00,18.4,14.9,29.74,ENE,57,0.0,0.0,86,0.00,CLR,,0.00,WeatherDisplay:10.37,2013-04-09 09:45:00,
2013-04-09 03:50:00,18.4,14.9,29.74,ENE,67,0.0,0.0,86,0.00,CLR,,0.00,WeatherDisplay:10.37,2013-04-09 09:50:00,
2013-04-09 03:55:00,18.3,14.5,29.74,East,87,0.0,0.0,85,0.00,CLR,,0.00,WeatherDisplay:10.37,2013-04-09 09:55:00,
2013-04-09 04:00:00,18.3,14.5,29.76,ENE,70,0.0,0.0,85,0.00,CLR,,0.00,WeatherDisplay:10.37,2013-04-09 10:00:00,
2013-04-09 04:05:00,18.1,14.4,29.76,East,83,0.0,0.0,85,0.00,CLR,,0.00,WeatherDisplay:10.37,2013-04-09 10:05:00,
2013-04-09 04:10:00,18.1,14.4,29.76,ENE,63,0.0,0.0,85,0.00,CLR,,0.00,WeatherDisplay:10.37,2013-04-09 10:10:00,
2013-04-09 04:15:00,18.1,14.4,29.80,East,79,0.0,0.0,85,0.00,CLR,,0.00,WeatherDisplay:10.37,2013-04-09 10:15:00,
2013-04-09 04:20:00,18.0,14.3,29.80,East,101,0.0,0.0,85,0.00,CLR,,0.00,WeatherDisplay:10.37,2013-04-09 10:20:00,
2013-04-09 04:25:00,18.0,14.3,29.80,East,96,0.0,0.0,85,0.00,CLR,,0.00,WeatherDisplay:10.37,2013-04-09 10:25:00,
2013-04-09 04:30:00,18.0,14.3,29.81,East,97,0.0,0.0,85,0.00,CLR,,0.00,WeatherDisplay:10.37,2013-04-09 10:30:00,
2013-04-09 04:35:00,18.0,14.3,29.81,ESE,118,0.0,0.0,85,0.00,CLR,,0.00,WeatherDisplay:10.37,2013-04-09 10:35:00,
2013-04-09 04:40:00,17.3,13.3,29.81,SE,128,0.0,0.0,84,0.00,CLR,,0.00,WeatherDisplay:10.37,2013-04-09 10:40:00,
2013-04-09 04:45:00,16.7,12.7,29.83,ESE,118,0.0,0.0,84,0.00,CLR,,0.00,WeatherDisplay:10.37,2013-04-09 10:45:00,
2013-04-09 04:50:00,16.2,12.2,29.83,SE,128,0.0,0.0,84,0.00,CLR,,0.00,WeatherDisplay:10.37,2013-04-09 10:50:00,
2013-04-09 04:55:00,16.1,12.1,29.83,ESE,115,0.0,0.0,84,0.00,CLR,,0.00,WeatherDisplay:10.37,2013-04-09 10:55:00,
2013-04-09 05:00:00,15.9,11.9,29.84,South,179,0.0,0.0,84,0.00,CLR,,0.00,WeatherDisplay:10.37,2013-04-09 11:00:00,
2013-04-09 05:05:00,15.7,11.7,29.84,SE,128,0.0,0.0,84,0.00,CLR,,0.00,WeatherDisplay:10.37,2013-04-09 11:05:00,
2013-04-09 05:10:00,15.6,11.6,29.84,ESE,120,0.0,0.0,84,0.00,CLR,,0.00,WeatherDisplay:10.37,2013-04-09 11:10:00,
2013-04-09 05:15:00,15.6,11.6,29.89,SE,128,0.0,0.0,84,0.00,CLR,,0.00,WeatherDisplay:10.37,2013-04-09 11:15:00,
2013-04-09 05:20:00,15.6,11.6,29.89,East,86,0.0,0.0,84,0.00,CLR,,0.00,WeatherDisplay:10.37,2013-04-09 11:20:00,
2013-04-09 05:25:00,15.7,11.7,29.89,ENE,76,0.0,0.0,84,0.00,CLR,,0.00,WeatherDisplay:10.37,2013-04-09 11:25:00,
2013-04-09 05:30:00,15.6,11.6,29.91,ENE,74,0.0,0.0,84,0.00,CLR,,0.00,WeatherDisplay:10.37,2013-04-09 11:30:00,
2013-04-09 05:35:00,15.4,11.2,29.91,ENE,66,0.0,0.0,83,0.00,CLR,,0.00,WeatherDisplay:10.37,2013-04-09 11:35:00,
2013-04-09 05:41:00,15.2,11.0,29.91,East,86,0.0,0.0,83,0.00,CLR,,0.00,WeatherDisplay:10.37,2013-04-09 11:41:00,
2013-04-09 05:46:00,15.1,10.9,29.93,East,91,0.0,0.0,83,0.00,CLR,,0.00,WeatherDisplay:10.37,2013-04-09 11:46:00,
2013-04-09 05:51:00,14.8,10.6,29.93,ENE,76,0.0,0.0,83,0.00,CLR,,0.00,WeatherDisplay:10.37,2013-04-09 11:51:00,
2013-04-09 05:57:00,14.4,10.2,29.93,NE,52,0.0,0.0,83,0.00,CLR,,0.00,WeatherDisplay:10.37,2013-04-09 11:57:00,
2013-04-09 06:02:00,14.4,10.2,29.94,ESE,121,0.0,0.0,83,0.00,CLR,,0.00,WeatherDisplay:10.37,2013-04-09 12:02:00,
2013-04-09 06:07:00,14.3,10.1,29.94,ENE,59,0.0,0.0,83,0.00,CLR,,0.00,WeatherDisplay:10.37,2013-04-09 12:07:00,
2013-04-09 06:12:00,14.1,9.6,29.94,East,87,0.0,0.0,82,0.00,CLR,,0.00,WeatherDisplay:10.37,2013-04-09 12:12:00,
2013-04-09 06:17:00,14.1,9.6,29.99,ENE,70,0.0,0.0,82,0.00,CLR,,0.00,WeatherDisplay:10.37,2013-04-09 12:17:00,
2013-04-09 06:22:00,14.0,9.8,29.99,ESE,105,0.0,0.0,83,0.00,CLR,,0.00,WeatherDisplay:10.37,2013-04-09 12:22:00,
2013-04-09 06:27:00,13.8,9.3,29.99,East,90,0.0,0.0,82,0.00,CLR,,0.00,WeatherDisplay:10.37,2013-04-09 12:27:00,
2013-04-09 06:32:00,13.8,9.3,30.00,ESE,105,0.0,0.0,82,0.00,CLR,,0.00,WeatherDisplay:10.37,2013-04-09 12:32:00,
2013-04-09 06:37:00,13.8,9.3,30.00,ESE,105,0.0,0.0,82,0.00,CLR,,0.00,WeatherDisplay:10.37,2013-04-09 12:37:00,
2013-04-09 06:42:00,13.8,9.3,30.00,ESE,105,0.0,0.0,82,0.00,CLR,,0.00,WeatherDisplay:10.37,2013-04-09 12:42:00,
2013-04-09 06:47:00,13.8,9.3,30.00,NNE,28,0.0,0.0,82,0.00,CLR,,0.00,WeatherDisplay:10.37,2013-04-09 12:47:00,
2013-04-09 06:52:00,13.8,9.3,30.00,East,83,0.0,0.0,82,0.00,CLR,,0.00,WeatherDisplay:10.37,2013-04-09 12:52:00,
2013-04-09 06:57:00,13.8,9.3,30.00,SE,128,0.0,0.0,82,0.00,CLR,,0.00,WeatherDisplay:10.37,2013-04-09 12:57:00,
2013-04-09 07:02:00,13.8,9.3,30.00,East,79,0.0,0.0,82,0.00,CLR,,0.00,WeatherDisplay:10.37,2013-04-09 13:02:00,
2013-04-09 07:07:00,13.8,9.0,30.00,East,98,0.0,0.0,81,0.00,CLR,,0.00,WeatherDisplay:10.37,2013-04-09 13:07:00,
2013-04-09 07:12:00,13.8,9.0,30.00,East,84,0.0,0.0,81,0.00,CLR,,0.00,WeatherDisplay:10.37,2013-04-09 13:12:00,
2013-04-09 07:18:00,13.8,9.0,30.02,East,86,0.0,0.0,81,0.00,CLR,,0.00,WeatherDisplay:10.37,2013-04-09 13:18:00,
2013-04-09 07:23:00,13.8,9.0,30.02,East,90,0.0,0.0,81,0.00,CLR,,0.00,WeatherDisplay:10.37,2013-04-09 13:23:00,
2013-04-09 07:28:00,13.8,9.0,30.02,East,91,0.0,0.0,81,0.00,CLR,,0.00,WeatherDisplay:10.37,2013-04-09 13:28:00,
2013-04-09 07:33:00,13.8,8.8,30.03,ESE,120,0.0,0.0,80,0.00,CLR,,0.00,WeatherDisplay:10.37,2013-04-09 13:33:00,
2013-04-09 07:38:00,13.8,8.8,30.03,ESE,107,0.0,0.0,80,0.00,CLR,,0.00,WeatherDisplay:10.37,2013-04-09 13:38:00,
2013-04-09 07:43:00,13.8,8.8,30.03,ESE,114,0.0,0.0,80,0.00,CLR,,0.00,WeatherDisplay:10.37,2013-04-09 13:43:00,
2013-04-09 07:48:00,13.8,8.8,30.06,ESE,121,0.0,0.0,80,0.00,CLR,,0.00,WeatherDisplay:10.37,2013-04-09 13:48:00,
2013-04-09 07:53:00,14.0,9.0,30.06,ESE,118,0.0,0.0,80,0.00,CLR,,0.00,WeatherDisplay:10.37,2013-04-09 13:53:00,
2013-04-09 07:58:00,13.8,8.8,30.06,ESE,117,0.0,0.0,80,0.00,CLR,,0.00,WeatherDisplay:10.37,2013-04-09 13:58:00,
2013-04-09 08:03:00,13.8,8.8,30.07,ESE,107,0.0,0.0,80,0.00,CLR,,0.00,WeatherDisplay:10.37,2013-04-09 14:03:00,
2013-04-09 08:08:00,13.6,8.6,30.07,SE,124,0.0,0.0,80,0.00,CLR,,0.00,WeatherDisplay:10.37,2013-04-09 14:08:00,
2013-04-09 08:13:00,13.6,8.6,30.07,SE,128,0.0,0.0,80,0.00,CLR,,0.00,WeatherDisplay:10.37,2013-04-09 14:13:00,
2013-04-09 08:18:00,13.5,8.5,30.09,SE,128,0.0,0.0,80,0.00,CLR,,0.00,WeatherDisplay:10.37,2013-04-09 14:18:00,
2013-04-09 08:23:00,13.5,8.5,30.09,East,86,0.0,0.0,80,0.00,CLR,,0.00,WeatherDisplay:10.37,2013-04-09 14:23:00,
2013-04-09 08:28:00,13.5,8.5,30.09,ENE,63,0.0,0.0,80,0.00,CLR,,0.00,WeatherDisplay:10.37,2013-04-09 14:28:00,
2013-04-09 08:33:00,13.5,8.5,30.07,ENE,74,0.0,0.0,80,0.00,CLR,,0.00,WeatherDisplay:10.37,2013-04-09 14:33:00,
2013-04-09 08:38:00,13.5,8.5,30.07,East,81,0.0,0.0,80,0.00,CLR,,0.00,WeatherDisplay:10.37,2013-04-09 14:38:00,
2013-04-09 08:43:00,13.3,8.3,30.07,East,90,0.0,0.0,80,0.00,CLR,,0.00,WeatherDisplay:10.37,2013-04-09 14:43:00,
2013-04-09 08:48:00,13.3,8.3,30.09,East,86,0.0,0.0,80,0.00,CLR,,0.00,WeatherDisplay:10.37,2013-04-09 14:48:00,
2013-04-09 08:53:00,13.3,8.3,30.09,ENE,77,0.0,0.0,80,0.00,CLR,,0.00,WeatherDisplay:10.37,2013-04-09 14:53:00,
2013-04-09 08:58:00,13.1,8.1,30.09,East,87,0.0,0.0,80,0.00,CLR,,0.00,WeatherDisplay:10.37,2013-04-09 14:58:00,
2013-04-09 09:03:00,13.1,8.1,30.10,ENE,66,0.0,0.0,80,0.00,CLR,,0.00,WeatherDisplay:10.37,2013-04-09 15:03:00,
2013-04-09 09:08:00,13.3,8.0,30.10,East,84,0.0,0.0,79,0.00,CLR,,0.00,WeatherDisplay:10.37,2013-04-09 15:08:00,
2013-04-09 09:13:00,13.5,8.5,30.10,East,100,0.0,0.0,80,0.00,CLR,,0.00,WeatherDisplay:10.37,2013-04-09 15:13:00,
2013-04-09 09:19:00,13.6,8.6,30.10,East,90,0.0,0.0,80,0.00,CLR,,0.00,WeatherDisplay:10.37,2013-04-09 15:19:00,
2013-04-09 09:25:00,13.5,8.5,30.10,East,88,0.0,0.0,80,0.00,CLR,,0.00,WeatherDisplay:10.37,2013-04-09 15:25:00,
2013-04-09 09:30:00,13.6,8.6,30.10,East,80,0.0,0.0,80,0.00,CLR,,0.00,WeatherDisplay:10.37,2013-04-09 15:30:00,
2013-04-09 09:35:00,13.6,8.3,30.09,East,88,0.0,0.0,79,0.00,CLR,,0.00,WeatherDisplay:10.37,2013-04-09 15:35:00,
2013-04-09 09:40:00,13.6,8.3,30.09,East,93,0.0,0.0,79,0.00,CLR,,0.00,WeatherDisplay:10.37,2013-04-09 15:40:00,
2013-04-09 09:45:00,13.6,8.3,30.09,SE,125,0.0,0.0,79,0.00,CLR,,0.00,WeatherDisplay:10.37,2013-04-09 15:45:00,
2013-04-09 09:50:00,13.8,8.5,30.11,ENE,77,0.0,0.0,79,0.00,CLR,,0.00,WeatherDisplay:10.37,2013-04-09 15:50:00,
2013-04-09 09:55:00,13.8,8.5,30.11,ENE,66,0.0,0.0,79,0.00,CLR,,0.00,WeatherDisplay:10.37,2013-04-09 15:55:00,
2013-04-09 10:00:00,13.8,8.5,30.11,ESE,114,0.0,0.0,79,0.00,CLR,,0.00,WeatherDisplay:10.37,2013-04-09 16:00:00,
2013-04-09 10:05:00,13.8,8.5,30.11,ESE,120,0.0,0.0,79,0.00,CLR,,0.00,WeatherDisplay:10.37,2013-04-09 16:05:00,
2013-04-09 10:10:00,14.1,8.8,30.11,ESE,120,0.0,0.0,79,0.00,CLR,,0.00,WeatherDisplay:10.37,2013-04-09 16:10:00,
2013-04-09 10:15:00,14.4,9.4,30.10,ESE,120,0.0,0.0,80,0.00,CLR,,0.00,WeatherDisplay:10.37,2013-04-09 16:15:00,
2013-04-09 10:20:00,14.4,9.1,30.10,East,83,0.0,0.0,79,0.00,CLR,,0.00,WeatherDisplay:10.37,2013-04-09 16:20:00,
2013-04-09 10:25:00,14.4,9.4,30.10,East,81,0.0,0.0,80,0.00,CLR,,0.00,WeatherDisplay:10.37,2013-04-09 16:25:00,
2013-04-09 10:30:00,14.6,9.6,30.11,ENE,77,0.0,0.0,80,0.00,CLR,,0.00,WeatherDisplay:10.37,2013-04-09 16:30:00,
2013-04-09 10:35:00,14.6,9.3,30.11,East,90,0.0,0.0,79,0.00,CLR,,0.00,WeatherDisplay:10.37,2013-04-09 16:35:00,
2013-04-09 10:40:00,14.6,9.3,30.11,East,80,0.0,0.0,79,0.00,CLR,,0.00,WeatherDisplay:10.37,2013-04-09 16:40:00,
2013-04-09 10:45:00,14.8,9.2,30.11,East,84,0.0,0.0,78,0.00,CLR,,0.00,WeatherDisplay:10.37,2013-04-09 16:45:00,
2013-04-09 10:50:00,14.6,9.3,30.11,East,100,0.0,0.0,79,0.00,CLR,,0.00,WeatherDisplay:10.37,2013-04-09 16:50:00,
2013-04-09 10:55:00,14.4,9.1,30.11,East,86,0.0,0.0,79,0.00,CLR,,0.00,WeatherDisplay:10.37,2013-04-09 16:55:00,
2013-04-09 11:00:00,14.4,9.1,30.11,East,97,0.0,0.0,79,0.00,CLR,,0.00,WeatherDisplay:10.37,2013-04-09 17:00:00,
2013-04-09 11:05:00,14.3,8.7,30.11,East,90,0.0,0.0,78,0.00,CLR,,0.00,WeatherDisplay:10.37,2013-04-09 17:05:00,
2013-04-09 11:10:00,14.1,8.5,30.11,East,93,0.0,0.0,78,0.00,CLR,,0.00,WeatherDisplay:10.37,2013-04-09 17:10:00,
2013-04-09 11:15:00,13.6,8.0,30.14,East,79,0.0,0.0,78,0.00,CLR,,0.00,WeatherDisplay:10.37,2013-04-09 17:15:00,
2013-04-09 11:20:00,13.3,8.0,30.14,East,94,0.0,0.0,79,0.00,CLR,,0.00,WeatherDisplay:10.37,2013-04-09 17:20:00,
2013-04-09 11:25:00,13.1,7.8,30.14,ENE,77,0.0,0.0,79,0.00,CLR,,0.00,WeatherDisplay:10.37,2013-04-09 17:25:00,
2013-04-09 11:30:00,12.9,7.6,30.13,East,91,0.0,0.0,79,0.00,CLR,,0.00,WeatherDisplay:10.37,2013-04-09 17:30:00,
2013-04-09 11:35:00,12.9,7.6,30.13,ESE,105,0.0,0.0,79,0.00,CLR,,0.00,WeatherDisplay:10.37,2013-04-09 17:35:00,
2013-04-09 11:40:00,12.6,7.0,30.13,ENE,73,0.0,0.0,78,0.00,CLR,,0.00,WeatherDisplay:10.37,2013-04-09 17:40:00,
2013-04-09 11:45:00,12.6,7.3,30.14,East,81,0.0,0.0,79,0.00,CLR,,0.00,WeatherDisplay:10.37,2013-04-09 17:45:00,
2013-04-09 11:50:00,12.8,7.8,30.14,NE,55,0.0,0.0,80,0.00,CLR,,0.00,WeatherDisplay:10.37,2013-04-09 17:50:00,
2013-04-09 11:55:00,12.9,7.6,30.14,ENE,72,0.0,0.0,79,0.00,CLR,,0.00,WeatherDisplay:10.37,2013-04-09 17:55:00,
2013-04-09 12:00:00,13.3,8.0,30.13,ENE,76,0.0,0.0,79,0.00,CLR,,0.00,WeatherDisplay:10.37,2013-04-09 18:00:00,
2013-04-09 12:05:00,13.3,7.7,30.13,East,87,0.0,0.0,78,0.00,CLR,,0.00,WeatherDisplay:10.37,2013-04-09 18:05:00,
2013-04-09 12:10:00,13.3,7.7,30.13,SE,131,0.0,0.0,78,0.00,CLR,,0.00,WeatherDisplay:10.37,2013-04-09 18:10:00,
2013-04-09 12:15:00,13.1,7.5,30.14,East,98,0.0,0.0,78,0.00,CLR,,0.00,WeatherDisplay:10.37,2013-04-09 18:15:00,
2013-04-09 12:21:00,13.3,7.7,30.14,ESE,111,0.0,0.0,78,0.00,CLR,,0.00,WeatherDisplay:10.37,2013-04-09 18:21:00,
2013-04-09 12:26:00,13.5,7.9,30.14,East,94,0.0,0.0,78,0.00,CLR,,0.00,WeatherDisplay:10.37,2013-04-09 18:26:00,
2013-04-09 12:31:00,14.0,8.4,30.14,ESE,112,0.0,0.0,78,0.00,CLR,,0.00,WeatherDisplay:10.37,2013-04-09 18:31:00,
2013-04-09 12:36:00,14.6,9.0,30.14,ENE,64,0.0,0.0,78,0.00,CLR,,0.00,WeatherDisplay:10.37,2013-04-09 18:36:00,
2013-04-09 12:41:00,15.2,9.3,30.14,East,84,0.0,0.0,77,0.00,CLR,,0.00,WeatherDisplay:10.37,2013-04-09 18:41:00,
2013-04-09 12:46:00,15.4,9.5,30.11,East,91,0.0,0.0,77,0.00,CLR,,0.00,WeatherDisplay:10.37,2013-04-09 18:46:00,
2013-04-09 12:51:00,15.2,9.0,30.11,ESE,118,0.0,0.0,76,0.00,CLR,,0.00,WeatherDisplay:10.37,2013-04-09 18:51:00,
2013-04-09 12:57:00,15.2,9.0,30.11,ESE,114,0.0,0.0,76,0.00,CLR,,0.00,WeatherDisplay:10.37,2013-04-09 18:57:00,
2013-04-09 13:02:00,15.9,9.7,30.11,ESE,112,0.0,0.0,76,0.00,CLR,,0.00,WeatherDisplay:10.37,2013-04-09 19:02:00,
2013-04-09 13:07:00,16.4,9.9,30.11,East,100,0.0,0.0,75,0.00,CLR,,0.00,WeatherDisplay:10.37,2013-04-09 19:07:00,
2013-04-09 13:12:00,16.4,9.9,30.11,ESE,104,0.0,0.0,75,0.00,CLR,,0.00,WeatherDisplay:10.37,2013-04-09 19:12:00,
2013-04-09 13:17:00,16.9,10.3,30.11,ENE,57,0.0,0.0,75,0.00,CLR,,0.00,WeatherDisplay:10.37,2013-04-09 19:17:00,
2013-04-09 13:22:00,16.7,9.8,30.11,ENE,76,0.0,0.0,74,0.00,CLR,,0.00,WeatherDisplay:10.37,2013-04-09 19:22:00,
2013-04-09 13:27:00,16.4,9.9,30.11,ENE,74,0.0,0.0,75,0.01,RA,,0.01,WeatherDisplay:10.37,2013-04-09 19:27:00,
2013-04-09 13:32:00,16.2,9.7,30.11,NE,55,10.4,10.4,75,0.01,RA,,0.01,WeatherDisplay:10.37,2013-04-09 19:32:00,
2013-04-09 13:37:00,15.7,9.2,30.11,ENE,66,6.9,6.9,75,0.01,CLR,,0.01,WeatherDisplay:10.37,2013-04-09 19:37:00,
2013-04-09 13:42:00,15.4,8.9,30.11,East,88,5.8,5.8,75,0.01,CLR,,0.01,WeatherDisplay:10.37,2013-04-09 19:42:00,
2013-04-09 13:47:00,14.9,8.7,30.13,East,83,5.8,5.8,76,0.01,CLR,,0.01,WeatherDisplay:10.37,2013-04-09 19:47:00,
2013-04-09 13:52:00,15.1,9.2,30.13,East,96,7.0,7.0,77,0.01,CLR,,0.01,WeatherDisplay:10.37,2013-04-09 19:52:00,
2013-04-09 13:57:00,15.2,9.3,30.13,East,88,6.0,6.0,77,0.01,CLR,,0.01,WeatherDisplay:10.37,2013-04-09 19:57:00,
2013-04-09 14:02:00,15.2,9.0,30.13,East,83,7.0,7.0,76,0.01,CLR,,0.01,WeatherDisplay:10.37,2013-04-09 20:02:00,
2013-04-09 14:07:00,15.9,9.7,30.13,East,91,8.1,8.1,76,0.01,CLR,,0.01,WeatherDisplay:10.37,2013-04-09 20:07:00,
2013-04-09 14:12:00,16.2,9.4,30.13,East,93,10.4,10.4,74,0.01,CLR,,0.01,WeatherDisplay:10.37,2013-04-09 20:12:00,
2013-04-09 14:17:00,16.1,9.0,30.15,East,91,10.4,10.4,73,0.01,CLR,,0.01,WeatherDisplay:10.37,2013-04-09 20:17:00,
2013-04-09 14:22:00,15.9,8.8,30.15,ENE,66,11.0,11.0,73,0.01,CLR,,0.01,WeatherDisplay:10.37,2013-04-09 20:22:00,
2013-04-09 14:27:00,16.4,9.3,30.15,East,91,8.1,8.1,73,0.00,CLR,,0.01,WeatherDisplay:10.37,2013-04-09 20:27:00,
2013-04-09 14:32:00,16.5,9.4,30.14,East,94,10.4,10.4,73,0.00,CLR,,0.01,WeatherDisplay:10.37,2013-04-09 20:32:00,
2013-04-09 14:37:00,16.7,9.8,30.14,East,88,10.4,10.4,74,0.00,CLR,,0.01,WeatherDisplay:10.37,2013-04-09 20:37:00,
2013-04-09 14:42:00,16.5,9.4,30.14,East,94,11.5,11.5,73,0.00,CLR,,0.01,WeatherDisplay:10.37,2013-04-09 20:42:00,
2013-04-09 14:47:00,16.4,9.3,30.14,East,81,12.0,12.0,73,0.00,CLR,,0.01,WeatherDisplay:10.37,2013-04-09 20:47:00,
2013-04-09 14:52:00,16.4,9.3,30.14,East,101,10.4,10.4,73,0.00,CLR,,0.01,WeatherDisplay:10.37,2013-04-09 20:52:00,
2013-04-09 14:57:00,15.9,8.2,30.14,East,96,10.4,10.4,71,0.00,CLR,,0.01,WeatherDisplay:10.37,2013-04-09 20:57:00,
2013-04-09 15:02:00,15.9,8.5,30.14,East,96,11.5,11.5,72,0.00,CLR,,0.01,WeatherDisplay:10.37,2013-04-09 21:02:00,
2013-04-09 15:08:00,15.4,7.7,30.14,East,100,10.4,10.4,71,0.00,CLR,,0.01,WeatherDisplay:10.37,2013-04-09 21:08:00,
2013-04-09 15:13:00,15.4,8.0,30.14,East,86,11.5,11.5,72,0.00,CLR,,0.01,WeatherDisplay:10.37,2013-04-09 21:13:00,
2013-04-09 15:18:00,15.2,7.8,30.17,East,97,10.4,10.4,72,0.00,CLR,,0.01,WeatherDisplay:10.37,2013-04-09 21:18:00,
2013-04-09 15:23:00,14.9,8.1,30.17,East,94,13.8,13.8,74,0.00,CLR,,0.01,WeatherDisplay:10.37,2013-04-09 21:23:00,
2013-04-09 15:28:00,14.8,8.3,30.17,East,101,12.7,12.7,75,0.00,CLR,,0.01,WeatherDisplay:10.37,2013-04-09 21:28:00,
2013-04-09 15:33:00,14.4,7.9,30.18,East,90,13.8,13.8,75,0.00,CLR,,0.01,WeatherDisplay:10.37,2013-04-09 21:33:00,
2013-04-09 15:38:00,14.1,7.3,30.18,East,88,11.5,11.5,74,0.00,CLR,,0.01,WeatherDisplay:10.37,2013-04-09 21:38:00,
2013-04-09 15:43:00,14.1,7.3,30.18,East,91,10.4,10.4,74,0.00,CLR,,0.01,WeatherDisplay:10.37,2013-04-09 21:43:00,
2013-04-09 15:48:00,13.8,6.7,30.18,East,81,11.5,11.5,73,0.00,CLR,,0.01,WeatherDisplay:10.37,2013-04-09 21:48:00,
2013-04-09 15:53:00,13.6,6.5,30.18,East,98,11.5,11.5,73,0.00,CLR,,0.01,WeatherDisplay:10.37,2013-04-09 21:53:00,
2013-04-09 15:58:00,14.0,6.9,30.18,East,98,11.5,11.5,73,0.00,CLR,,0.01,WeatherDisplay:10.37,2013-04-09 21:58:00,
2013-04-09 16:03:00,14.1,6.4,30.19,ENE,69,11.5,11.5,71,0.00,CLR,,0.01,WeatherDisplay:10.37,2013-04-09 22:03:00,
2013-04-09 16:08:00,14.3,6.9,30.19,ENE,76,10.4,10.4,72,0.00,CLR,,0.01,WeatherDisplay:10.37,2013-04-09 22:08:00,
2013-04-09 16:13:00,14.3,6.9,30.19,NE,49,11.5,11.5,72,0.00,CLR,,0.01,WeatherDisplay:10.37,2013-04-09 22:13:00,
2013-04-09 16:18:00,14.1,6.4,30.22,ENE,63,11.5,11.5,71,0.00,CLR,,0.01,WeatherDisplay:10.37,2013-04-09 22:18:00,
2013-04-09 16:23:00,14.1,6.4,30.22,East,86,8.1,8.1,71,0.00,CLR,,0.01,WeatherDisplay:10.37,2013-04-09 22:23:00,
2013-04-09 16:28:00,14.1,7.0,30.22,ENE,66,11.5,11.5,73,0.00,CLR,,0.01,WeatherDisplay:10.37,2013-04-09 22:28:00,
2013-04-09 16:33:00,14.0,6.9,30.23,ENE,59,11.5,11.5,73,0.00,CLR,,0.01,WeatherDisplay:10.37,2013-04-09 22:33:00,
2013-04-09 16:38:00,14.1,7.3,30.23,NE,56,12.7,12.7,74,0.00,CLR,,0.01,WeatherDisplay:10.37,2013-04-09 22:38:00,
2013-04-09 16:43:00,14.1,7.0,30.23,NE,38,11.5,11.5,73,0.00,CLR,,0.01,WeatherDisplay:10.37,2013-04-09 22:43:00,
2013-04-09 16:48:00,14.0,7.2,30.23,East,80,8.1,8.1,74,0.00,CLR,,0.01,WeatherDisplay:10.37,2013-04-09 22:48:00,
2013-04-09 16:53:00,13.8,6.7,30.23,ENE,67,8.1,8.1,73,0.00,CLR,,0.01,WeatherDisplay:10.37,2013-04-09 22:53:00,
2013-04-09 16:58:00,13.6,6.8,30.23,ENE,60,10.4,10.4,74,0.00,CLR,,0.01,WeatherDisplay:10.37,2013-04-09 22:58:00,
2013-04-09 17:03:00,13.5,7.0,30.23,ENE,74,11.5,11.5,75,0.00,CLR,,0.01,WeatherDisplay:10.37,2013-04-09 23:03:00,
2013-04-09 17:08:00,13.5,7.0,30.23,ENE,70,8.1,8.1,75,0.00,CLR,,0.01,WeatherDisplay:10.37,2013-04-09 23:08:00,
2013-04-09 17:13:00,13.8,7.3,30.23,East,81,4.6,4.6,75,0.00,CLR,,0.01,WeatherDisplay:10.37,2013-04-09 23:13:00,
2013-04-09 17:18:00,13.5,6.8,30.24,ENE,64,6.9,6.9,74,0.00,CLR,,0.01,WeatherDisplay:10.37,2013-04-09 23:18:00,
2013-04-09 17:23:00,13.1,6.4,30.24,East,80,8.1,8.1,74,0.00,CLR,,0.01,WeatherDisplay:10.37,2013-04-09 23:23:00,
2013-04-09 17:28:00,12.8,5.8,30.24,East,79,10.4,10.4,73,0.00,CLR,,0.01,WeatherDisplay:10.37,2013-04-09 23:28:00,
2013-04-09 17:33:00,12.6,5.6,30.26,ENE,67,10.4,10.4,73,0.00,CLR,,0.01,WeatherDisplay:10.37,2013-04-09 23:33:00,
2013-04-09 17:38:00,12.6,5.9,30.26,East,86,6.9,6.9,74,0.00,CLR,,0.01,WeatherDisplay:10.37,2013-04-09 23:38:00,
2013-04-09 17:43:00,12.6,5.6,30.26,East,79,6.9,6.9,73,0.00,CLR,,0.01,WeatherDisplay:10.37,2013-04-09 23:43:00,
2013-04-09 17:48:00,12.6,5.6,30.27,East,88,10.4,10.4,73,0.00,CLR,,0.01,WeatherDisplay:10.37,2013-04-09 23:48:00,
2013-04-09 17:53:00,12.6,5.3,30.27,ESE,108,10.4,10.4,72,0.00,CLR,,0.01,WeatherDisplay:10.37,2013-04-09 23:53:00,
2013-04-09 17:58:00,12.6,5.3,30.27,East,94,11.5,11.5,72,0.00,CLR,,0.01,WeatherDisplay:10.37,2013-04-09 23:58:00,
2013-04-09 18:03:00,12.4,5.1,30.29,ENE,57,11.5,11.5,72,0.00,CLR,,0.01,WeatherDisplay:10.37,2013-04-10 00:03:00,
2013-04-09 18:08:00,12.3,5.3,30.29,ENE,67,11.5,11.5,73,0.00,CLR,,0.01,WeatherDisplay:10.37,2013-04-10 00:08:00,
2013-04-09 18:13:00,11.7,4.7,30.29,East,81,13.8,13.8,73,0.00,CLR,,0.01,WeatherDisplay:10.37,2013-04-10 00:13:00,
2013-04-09 18:18:00,11.6,4.9,30.30,ENE,77,11.5,11.5,74,0.00,CLR,,0.01,WeatherDisplay:10.37,2013-04-10 00:18:00,
2013-04-09 18:23:00,11.6,4.9,30.30,ENE,59,10.4,10.4,74,0.00,CLR,,0.01,WeatherDisplay:10.37,2013-04-10 00:23:00,
2013-04-09 18:28:00,11.6,4.9,30.30,ENE,67,8.1,8.1,74,0.00,CLR,,0.01,WeatherDisplay:10.37,2013-04-10 00:28:00,
2013-04-09 18:33:00,11.6,5.2,30.31,NE,50,5.8,5.8,75,0.00,CLR,,0.01,WeatherDisplay:10.37,2013-04-10 00:33:00,
2013-04-09 18:38:00,11.4,5.3,30.31,ENE,69,10.4,10.4,76,0.00,CLR,,0.01,WeatherDisplay:10.37,2013-04-10 00:38:00,
2013-04-09 18:43:00,11.2,5.1,30.31,East,93,6.9,6.9,76,0.00,CLR,,0.01,WeatherDisplay:10.37,2013-04-10 00:43:00,
2013-04-09 18:48:00,11.1,5.0,30.34,ENE,77,5.0,5.0,76,0.00,CLR,,0.01,WeatherDisplay:10.37,2013-04-10 00:48:00,
2013-04-09 18:53:00,10.9,5.1,30.34,East,80,10.4,10.4,77,0.00,CLR,,0.01,WeatherDisplay:10.37,2013-04-10 00:53:00,
2013-04-09 18:58:00,10.7,4.9,30.34,ENE,73,11.5,11.5,77,0.00,CLR,,0.01,WeatherDisplay:10.37,2013-04-10 00:58:00,
2013-04-09 19:03:00,10.5,4.7,30.34,ENE,73,11.5,11.5,77,0.00,CLR,,0.01,WeatherDisplay:10.37,2013-04-10 01:03:00,
2013-04-09 19:08:00,10.4,4.6,30.34,ENE,66,8.1,8.1,77,0.00,CLR,,0.01,WeatherDisplay:10.37,2013-04-10 01:08:00,
2013-04-09 19:13:00,10.2,4.4,30.34,ESE,114,8.1,8.1,77,0.00,CLR,,0.01,WeatherDisplay:10.37,2013-04-10 01:13:00,
2013-04-09 19:18:00,10.0,3.9,30.34,ENE,69,6.9,6.9,76,0.00,CLR,,0.01,WeatherDisplay:10.37,2013-04-10 01:18:00,
2013-04-09 19:23:00,10.0,3.9,30.34,East,83,5.8,5.8,76,0.00,CLR,,0.01,WeatherDisplay:10.37,2013-04-10 01:23:00,
2013-04-09 19:29:00,9.9,3.8,30.34,NE,55,6.9,6.9,76,0.00,CLR,,0.01,WeatherDisplay:10.37,2013-04-10 01:29:00,
2013-04-09 19:34:00,9.9,3.8,30.34,ENE,69,2.3,2.3,76,0.00,CLR,,0.01,WeatherDisplay:10.37,2013-04-10 01:34:00,
2013-04-09 19:39:00,9.9,3.8,30.34,ENE,59,5.0,5.0,76,0.00,CLR,,0.01,WeatherDisplay:10.37,2013-04-10 01:39:00,
2013-04-09 19:44:00,9.9,3.8,30.34,NNE,33,3.5,3.5,76,0.00,CLR,,0.01,WeatherDisplay:10.37,2013-04-10 01:44:00,
2013-04-09 19:49:00,9.9,3.6,30.34,ENE,76,3.5,3.5,75,0.00,CLR,,0.01,WeatherDisplay:10.37,2013-04-10 01:49:00,
2013-04-09 19:54:00,9.9,3.6,30.34,ENE,72,5.8,5.8,75,0.00,CLR,,0.01,WeatherDisplay:10.37,2013-04-10 01:54:00,
2013-04-09 19:59:00,9.7,3.1,30.34,ESE,121,3.5,3.5,74,0.00,CLR,,0.01,WeatherDisplay:10.37,2013-04-10 01:59:00,
2013-04-09 20:04:00,9.5,2.6,30.35,ESE,108,3.5,3.5,73,0.00,CLR,,0.01,WeatherDisplay:10.37,2013-04-10 02:04:00,
2013-04-09 20:09:00,9.5,2.6,30.35,East,93,2.3,2.3,73,0.00,CLR,,0.01,WeatherDisplay:10.37,2013-04-10 02:09:00,
2013-04-09 20:14:00,9.5,2.6,30.35,East,91,3.5,3.5,73,0.00,CLR,,0.01,WeatherDisplay:10.37,2013-04-10 02:14:00,
2013-04-09 20:19:00,9.3,2.7,30.37,ESE,121,3.5,3.5,74,0.00,CLR,,0.01,WeatherDisplay:10.37,2013-04-10 02:19:00,
2013-04-09 20:24:00,9.2,2.6,30.37,SE,128,4.6,4.6,74,0.00,CLR,,0.01,WeatherDisplay:10.37,2013-04-10 02:24:00,
2013-04-09 20:29:00,9.0,2.7,30.37,SE,124,3.5,3.5,75,0.00,CLR,,0.01,WeatherDisplay:10.37,2013-04-10 02:29:00,
2013-04-09 20:34:00,9.0,2.7,30.38,SE,128,3.5,3.5,75,0.00,CLR,,0.01,WeatherDisplay:10.37,2013-04-10 02:34:00,
2013-04-09 20:39:00,8.8,2.5,30.38,SE,124,3.0,3.0,75,0.00,CLR,,0.01,WeatherDisplay:10.37,2013-04-10 02:39:00,
2013-04-09 20:44:00,8.8,2.5,30.38,ESE,118,4.6,4.6,75,0.00,CLR,,0.01,WeatherDisplay:10.37,2013-04-10 02:44:00,
2013-04-09 20:49:00,8.6,2.3,30.39,SE,128,3.5,3.5,75,0.00,CLR,,0.01,WeatherDisplay:10.37,2013-04-10 02:49:00,
2013-04-09 20:54:00,8.6,2.3,30.39,SE,128,3.5,3.5,75,0.00,CLR,,0.01,WeatherDisplay:10.37,2013-04-10 02:54:00,
2013-04-09 20:59:00,8.6,2.3,30.39,SE,138,3.5,3.5,75,0.00,CLR,,0.01,WeatherDisplay:10.37,2013-04-10 02:59:00,
2013-04-09 21:04:00,8.6,2.3,30.40,SE,128,5.8,5.8,75,0.00,CLR,,0.01,WeatherDisplay:10.37,2013-04-10 03:04:00,
2013-04-09 21:09:00,8.4,1.8,30.40,SE,128,4.6,4.6,74,0.00,CLR,,0.01,WeatherDisplay:10.37,2013-04-10 03:09:00,
2013-04-09 21:14:00,8.6,2.3,30.40,ESE,121,2.3,2.3,75,0.00,CLR,,0.01,WeatherDisplay:10.37,2013-04-10 03:14:00,
2013-04-09 21:19:00,8.4,1.8,30.40,ESE,122,1.2,1.2,74,0.00,CLR,,0.01,WeatherDisplay:10.37,2013-04-10 03:19:00,
2013-04-09 21:24:00,8.4,1.8,30.40,ESE,122,3.5,3.5,74,0.00,CLR,,0.01,WeatherDisplay:10.37,2013-04-10 03:24:00,
2013-04-09 21:29:00,8.4,1.8,30.40,SE,128,4.6,4.6,74,0.00,CLR,,0.01,WeatherDisplay:10.37,2013-04-10 03:29:00,
2013-04-09 21:34:00,8.4,1.8,30.40,SE,128,2.3,2.3,74,0.00,CLR,,0.01,WeatherDisplay:10.37,2013-04-10 03:34:00,
2013-04-09 21:39:00,8.4,2.1,30.40,SE,128,3.5,3.5,75,0.00,CLR,,0.01,WeatherDisplay:10.37,2013-04-10 03:39:00,
2013-04-09 21:44:00,8.3,2.0,30.40,SE,128,3.5,3.5,75,0.00,CLR,,0.01,WeatherDisplay:10.37,2013-04-10 03:44:00,
2013-04-09 21:49:00,8.3,2.0,30.40,SE,128,3.5,3.5,75,0.00,CLR,,0.01,WeatherDisplay:10.37,2013-04-10 03:49:00,
2013-04-09 21:54:00,8.1,1.5,30.40,SE,124,2.3,2.3,74,0.00,CLR,,0.01,WeatherDisplay:10.37,2013-04-10 03:54:00,
2013-04-09 21:59:00,8.1,1.5,30.40,SE,124,2.3,2.3,74,0.00,CLR,,0.01,WeatherDisplay:10.37,2013-04-10 03:59:00,
2013-04-09 22:00:00,8.1,1.5,30.40,SE,124,2.3,2.3,74,0.00,CLR,,0.01,WeatherDisplay:10.37,2013-04-10 04:00:00,
2013-04-09 22:05:00,8.1,1.5,30.40,SE,127,2.3,2.3,74,0.00,CLR,,0.01,WeatherDisplay:10.37,2013-04-10 04:05:00,
2013-04-09 22:10:00,8.1,1.8,30.40,ESE,122,1.2,1.2,75,0.00,CLR,,0.01,WeatherDisplay:10.37,2013-04-10 04:10:00,
2013-04-09 22:15:00,8.1,1.8,30.39,ESE,122,2.3,2.3,75,0.00,CLR,,0.01,WeatherDisplay:10.37,2013-04-10 04:15:00,
2013-04-09 22:20:00,7.9,1.6,30.39,ESE,122,2.3,2.3,75,0.00,CLR,,0.01,WeatherDisplay:10.37,2013-04-10 04:20:00,
2013-04-09 22:25:00,7.9,1.6,30.39,ESE,122,1.2,1.2,75,0.00,CLR,,0.01,WeatherDisplay:10.37,2013-04-10 04:25:00,
2013-04-09 22:30:00,8.3,2.3,30.38,East,94,4.6,4.6,76,0.00,CLR,,0.01,WeatherDisplay:10.37,2013-04-10 04:30:00,
2013-04-09 22:36:00,8.4,2.4,30.38,ENE,72,4.6,4.6,76,0.00,CLR,,0.01,WeatherDisplay:10.37,2013-04-10 04:36:00,
2013-04-09 22:41:00,8.4,2.4,30.38,East,87,3.5,3.5,76,0.00,CLR,,0.01,WeatherDisplay:10.37,2013-04-10 04:41:00,
2013-04-09 22:46:00,8.3,2.3,30.38,ENE,77,4.6,4.6,76,0.00,CLR,,0.01,WeatherDisplay:10.37,2013-04-10 04:46:00,
2013-04-09 22:51:00,8.1,2.1,30.38,ENE,77,4.6,4.6,76,0.00,CLR,,0.01,WeatherDisplay:10.37,2013-04-10 04:51:00,
2013-04-09 22:57:00,7.7,1.7,30.38,ENE,77,4.6,4.6,76,0.00,CLR,,0.01,WeatherDisplay:10.37,2013-04-10 04:57:00,
2013-04-09 23:02:00,7.6,1.6,30.38,East,100,4.6,4.6,76,0.00,CLR,,0.01,WeatherDisplay:10.37,2013-04-10 05:02:00,
2013-04-09 23:07:00,7.4,1.4,30.38,ESE,103,4.6,4.6,76,0.00,CLR,,0.01,WeatherDisplay:10.37,2013-04-10 05:07:00,
2013-04-09 23:12:00,7.2,1.2,30.38,East,101,3.5,3.5,76,0.00,CLR,,0.01,WeatherDisplay:10.37,2013-04-10 05:12:00,
2013-04-09 23:17:00,7.2,1.2,30.40,East,101,2.3,2.3,76,0.00,CLR,,0.01,WeatherDisplay:10.37,2013-04-10 05:17:00,
2013-04-09 23:22:00,7.0,1.0,30.40,East,101,2.3,2.3,76,0.00,CLR,,0.01,WeatherDisplay:10.37,2013-04-10 05:22:00,
2013-04-09 23:27:00,6.9,0.9,30.40,East,101,1.2,1.2,76,0.00,CLR,,0.01,WeatherDisplay:10.37,2013-04-10 05:27:00,
2013-04-09 23:32:00,6.9,0.9,30.39,East,101,1.2,1.2,76,0.00,CLR,,0.01,WeatherDisplay:10.37,2013-04-10 05:32:00,
2013-04-09 23:37:00,6.5,0.5,30.39,East,101,2.3,2.3,76,0.00,CLR,,0.01,WeatherDisplay:10.37,2013-04-10 05:37:00,
2013-04-09 23:42:00,6.3,0.6,30.39,East,101,2.3,2.3,77,0.00,CLR,,0.01,WeatherDisplay:10.37,2013-04-10 05:42:00,
2013-04-09 23:47:00,6.1,0.4,30.40,East,101,1.2,0.0,77,0.00,CLR,,0.01,WeatherDisplay:10.37,2013-04-10 05:47:00,
2013-04-09 23:52:00,6.1,0.2,30.40,East,101,1.2,1.2,76,0.00,CLR,,0.01,WeatherDisplay:10.37,2013-04-10 05:52:00,
2013-04-09 23:57:00,6.0,0.1,30.40,East,101,1.2,1.2,76,0.00,CLR,,0.01,WeatherDisplay:10.37,2013-04-10 05:57:00,